ARIANE 44LP DEB, 26812

Orbit data source: Space-Track

ARIANE 44LP DEB, 26812 is space debris in HEO originally from a launch on Sun, 11 Dec 1988 UTC launched from the French Guiana (FRGUI). Debris objects in space refer to the collection of defunct objects orbiting the Earth. Examples of debris include non-operational satellites, rocket bodies, and fragments generated from explosions, collisions, or faulty payload assembly.

Loading next visibility...
Identifier
26812, 1988-109P
Orbit
HEO
Country
Flag of FRFR
Related business
Manufacturer
Unknown
Mission
Spacecraft
Bus & Motor
Unknown
Mass
Unknown
Launch date (UTC)
1988-12-11 (37 years ago)
Launch vehicle
Unknown
Launch site
French Guiana (FRGUI)
Object type
Payload
Rocket body
Debris
Shape & HBR
Unknown shape, 1.1 m
Radar Cross Section
Medium (>0.1 m² and <1 m²)

Expand to show TLE details & history
Last TLE update: 9 hours ago

TLE from 9 hours ago
0 ARIANE 44LP DEB
1 26812U 88109P   25291.06177505 -.00000000  00000-0  00000+0 0  9995
2 26812   6.3248 252.3222 7012346  52.6659  52.1891  2.21708450224821
Epoch: 2025-10-18T01:28Z
TLE epoch observation values (Epoch: 2025-10-18T01:28:57.364Z)
Latitude
-0.9727°
Longitude
31.94252°
Altitude
19,122.287 km
Speed
3.901 km/s
True Right ascension
05h 23m 55s
True Declination
0° 58' 16"
Sunlit
Object was in daylight at epoch
Visualization orbit readout
Latitude
Unknown
Longitude
Unknown
Altitude
Unknown
Speed
Unknown
Apparent Right ascension
Unknown
Apparent Declination
Unknown
Sunlit
N/A
Visualization observer readout
Local Sidereal Time
04:57:38
Azimuth
Unknown
Elevation
Unknown
Doppler factor
Unknown
Orbital elements
Apogee altitude
35,894.771 km
Perigee altitude
1,045.696 km
Semi-major axis
24,848.37 km
Eccentricity
0.70123
Inclination
6.3248°
RAAN
252.3222°
Arg. of periapsis
52.6659°
True anomaly
136.1665°
Mean anomaly
52.1891°
Eccentric anomaly
92.33356°
Mean motion
0.55411 °/min
Orbital period
649.69 mins
BSTAR
0
Loading maneuver chart data...
Computing Atmospheric mass density...
Loading historical data...
Loading historical data...
Loading historical data...
Loading historical data...
Loading historical data...
Loading historical data...
Loading historical data...

Documentation

Showing up to 5 results
|